Location: Berg
(48.5667°N, 13.9833°E)
Time: 13:24:09
(UTC+00:00)

Cosmos 1766 Rocket - Pass Details

Date: 09 April 2020
Orbit: 604 x 634 km, 82.5° (Epoch: 27 May)

Event Time Altitude Azimuth Distance (km) Brightness Sun altitude
Rises 20:46:31 0° 348° (NNW) 2,940 8.0 -25.7°
Reaches altitude 10° 20:48:47 10° 346° (NNW) 2,025 7.0 -26.0°
Enters shadow 20:52:53 65° 298° (WNW) 693 3.9 -26.4°
